Theta_e
352 353 351 351 352 351 346 339 319 328 326 317 319 323 320 333 333 332 331 335 329 334 336 341 338 338 335 332 334 337 339 330 329 321 320 339 352 353 356 355 357 356 356 358 361 361 361 361 362 362 362 364 365 365 366 366 365 366 366 363 362 361 361 360 359 360 360 361 361 361 360 359 361 360 361 360 360 361 361 361 362 361 361 362 362 363 363 362 359 355 355 356 359 360 360 360 360
350 351 351 354 350 347 337 345 324 322 322 318 320 325 326 331 331 328 329 332 331 332 337 337 336 337 338 337 339 338 336 339 340 338 342 349 352 351 353 356 356 356 356 359 360 360 361 362 362 364 363 365 365 366 366 366 366 365 364 363 360 360 360 358 359 358 358 359 360 359 358 358 360 360 360 359 359 360 360 361 361 362 362 362 362 362 361 361 357 355 356 357 359 360 360 359 360
349 350 350 351 346 341 344 341 317 321 316 313 319 324 331 329 327 331 334 334 334 336 337 337 339 338 337 338 333 333 328 341 340 342 342 349 345 350 353 355 355 356 357 358 358 359 360 363 365 364 364 366 366 366 365 365 366 366 364 362 360 359 356 357 357 357 359 360 360 359 360 359 360 360 360 360 358 358 360 360 360 361 361 362 361 361 361 361 360 355 355 360 360 359 360 360 361
356 358 351 343 337 352 332 328 323 320 314 317 318 328 331 330 329 335 339 335 335 336 336 334 333 340 335 331 333 338 336 337 343 342 341 344 346 349 351 354 359 357 356 357 358 359 362 364 365 365 365 366 366 365 366 365 365 365 363 361 359 358 358 358 358 358 360 360 361 359 359 359 359 358 360 360 359 359 361 361 360 361 361 361 362 362 361 361 359 354 357 358 359 359 360 361 361
355 356 355 343 338 329 329 323 324 324 315 322 319 328 329 331 333 336 336 334 335 337 337 335 334 340 341 337 338 332 334 341 343 346 343 348 352 353 354 354 354 355 355 356 358 360 362 365 365 365 365 366 366 366 366 365 366 363 363 362 360 359 358 358 357 359 360 360 360 359 359 360 360 360 359 359 360 359 360 360 360 361 361 362 362 361 362 359 356 355 357 358 358 358 360 361 360
354 354 353 346 338 349 333 322 321 319 325 329 325 328 333 335 335 334 332 335 337 338 338 335 332 332 333 337 339 335 342 335 344 346 347 346 351 352 353 355 355 354 356 357 359 361 362 365 365 365 366 366 366 366 365 366 362 362 364 363 362 361 360 360 359 359 359 359 359 360 359 360 360 360 360 360 360 360 361 360 360 361 361 360 359 361 360 358 357 356 358 358 357 358 360 361 360
349 346 344 347 344 343 321 321 322 324 326 332 329 330 334 337 335 334 333 333 336 339 340 335 336 335 331 337 341 345 349 348 346 345 349 352 353 354 354 354 354 354 357 357 360 361 363 365 365 366 366 365 366 366 365 364 363 364 365 364 363 363 363 361 360 361 361 360 361 360 360 359 360 360 360 360 359 360 360 360 361 360 360 360 361 360 360 359 357 357 358 358 358 358 360 361 360
354 342 342 333 328 330 323 324 324 325 327 332 334 333 336 337 338 335 333 332 330 332 334 335 336 333 332 341 332 343 348 350 349 352 351 353 353 354 353 353 354 352 354 358 361 363 369 366 366 366 366 366 366 366 366 365 364 365 364 364 363 362 363 362 362 362 362 362 361 361 360 360 360 360 359 358 359 360 360 360 360 361 361 360 360 360 359 359 358 357 356 357 359 359 359 360 361
352 348 346 332 323 329 322 322 324 332 330 332 333 341 342 343 342 336 334 335 334 334 334 334 335 329 331 336 335 343 345 350 352 354 353 351 351 353 355 354 353 353 356 359 361 363 363 366 367 367 366 366 365 365 365 364 364 364 364 363 363 363 363 363 362 363 362 362 362 362 361 360 360 359 358 358 360 360 361 361 361 361 360 358 359 360 359 359 360 358 357 359 360 360 360 361 361
351 344 331 328 328 318 321 322 323 325 328 334 335 339 341 343 338 338 334 336 335 336 336 338 337 332 336 332 336 341 342 350 351 350 352 352 352 353 355 357 356 355 356 356 359 360 361 368 366 366 366 366 365 364 364 364 365 364 364 363 363 363 363 363 362 362 362 362 361 361 360 361 359 358 357 359 361 361 360 361 360 360 360 360 359 360 359 357 359 359 359 360 361 361 360 361 362
339 345 343 326 320 320 317 320 323 326 330 335 336 341 343 343 340 341 339 336 337 334 336 338 333 333 335 336 338 347 349 349 348 346 350 351 354 356 354 356 358 356 354 357 359 361 362 363 368 365 366 366 365 365 364 364 364 364 364 363 364 364 363 362 362 362 362 362 361 361 361 360 358 359 360 361 361 361 361 360 361 361 360 361 359 360 359 358 359 360 359 360 360 361 360 361 363
334 333 335 320 321 319 322 321 323 327 331 334 332 340 342 342 343 334 336 333 335 335 334 338 334 338 332 334 336 344 347 346 347 351 353 354 352 353 355 356 356 356 356 357 358 359 361 363 362 367 366 366 366 365 365 365 364 364 364 363 363 363 363 363 362 362 362 363 362 361 361 360 361 361 361 361 361 361 361 361 360 360 361 359 360 361 361 359 360 359 360 361 361 361 361 362 362
336 335 329 325 321 322 323 323 324 327 327 329 331 339 344 341 335 335 336 338 337 335 337 341 340 339 330 332 340 343 343 345 348 351 353 354 353 354 355 355 355 355 356 356 355 356 358 359 360 361 365 366 365 365 365 365 365 364 363 363 363 363 363 363 363 362 362 363 362 362 361 361 361 361 360 361 361 361 361 361 361 361 361 361 362 361 362 359 360 360 361 361 362 362 362 362 362
337 338 333 322 329 327 323 324 326 324 324 331 338 340 343 338 339 338 337 336 335 336 339 341 341 340 334 335 336 338 341 347 349 351 352 353 354 352 354 354 354 354 353 351 350 353 355 355 358 362 364 363 364 365 364 364 364 364 363 363 362 362 363 363 363 362 362 362 362 361 361 362 361 361 361 361 361 361 361 361 361 362 361 362 361 362 362 362 361 361 362 363 362 361 360 361 362
339 344 332 327 324 327 325 322 324 324 323 334 337 340 340 340 342 341 339 337 339 344 344 347 343 337 328 332 332 337 341 346 348 350 352 353 353 352 351 352 352 350 349 348 351 350 351 356 358 361 363 362 363 363 363 364 365 364 364 364 363 363 363 363 362 362 362 362 361 362 363 363 362 362 361 360 360 361 361 360 361 362 362 362 362 362 362 362 362 361 361 361 361 362 362 363 363
341 342 336 325 322 323 323 324 328 325 325 336 339 342 340 342 345 340 342 345 340 347 347 337 342 338 337 336 337 341 344 346 347 349 350 350 352 353 351 350 348 347 347 349 349 350 353 356 359 360 361 361 361 362 363 363 364 364 363 363 363 363 363 363 362 362 362 362 362 362 362 361 361 360 363 359 360 360 360 360 361 362 362 361 362 362 362 362 363 363 362 363 363 363 363 364 364
341 338 326 324 321 325 323 324 329 324 331 336 341 339 335 336 345 347 352 351 339 341 345 341 339 342 338 340 342 344 345 346 348 348 347 347 348 347 349 348 347 347 349 351 351 351 353 356 359 359 364 361 361 362 362 363 363 364 362 363 364 363 363 363 363 363 362 362 362 362 360 360 361 361 359 359 360 358 361 361 361 362 362 362 363 363 363 363 364 364 364 364 364 364 363 363 363
334 327 329 321 326 324 328 326 330 333 331 334 337 339 338 335 341 344 348 343 342 343 341 339 339 342 343 343 345 345 345 345 346 345 344 344 345 345 347 348 346 347 349 351 353 353 354 357 359 360 362 360 361 360 361 362 362 362 362 363 363 363 363 363 362 361 363 361 361 360 360 359 361 362 362 361 360 359 360 362 362 362 362 363 363 363 363 364 365 364 364 365 365 365 364 360 362
328 329 328 322 325 327 332 333 335 333 333 338 339 340 339 337 340 342 337 337 337 336 339 336 335 340 342 343 343 343 344 344 344 344 343 342 343 343 345 348 348 347 350 352 354 354 356 357 359 360 360 360 359 361 361 362 361 362 362 363 362 363 363 363 362 362 362 361 361 359 362 358 358 361 363 360 360 362 361 363 363 363 362 362 363 364 364 364 365 365 365 365 366 364 360 360 359
330 326 326 326 332 332 336 337 336 340 338 338 338 340 340 339 341 346 337 334 337 335 333 335 335 337 339 340 342 342 342 343 344 343 342 342 342 343 345 346 346 348 349 350 351 355 356 356 359 360 360 361 360 360 361 362 362 363 363 362 363 363 363 363 363 363 362 362 361 359 359 360 360 363 361 363 363 361 361 363 363 363 364 364 364 363 364 364 365 366 366 366 366 362 357 357 355
332 327 324 327 333 331 335 340 338 340 342 339 339 340 339 342 342 342 336 333 335 336 341 336 335 337 338 340 341 342 341 341 342 342 342 342 343 345 347 347 347 349 350 352 352 353 356 357 360 360 361 361 361 361 360 360 362 362 361 362 363 363 361 361 361 361 361 362 363 362 356 357 358 361 362 361 360 361 361 360 360 360 362 363 363 362 362 363 364 364 364 364 364 363 361 361 360
330 329 330 334 330 331 334 338 339 340 342 340 339 335 336 342 341 338 338 330 327 336 336 340 340 340 340 340 340 341 341 340 340 340 340 341 342 343 346 348 350 350 352 348 350 354 357 358 360 360 360 361 360 360 360 362 360 359 358 360 363 362 362 360 360 361 363 364 365 361 359 359 359 360 361 364 362 365 361 361 360 361 362 362 365 363 363 364 363 362 363 364 362 358 352 354 354
323 331 330 330 333 330 334 338 340 340 340 339 337 340 341 340 337 340 337 333 338 343 345 342 342 342 342 342 341 340 340 340 339 339 339 340 342 344 346 348 348 349 349 347 351 356 357 358 360 359 359 361 361 362 361 361 359 360 362 361 361 359 359 360 359 358 361 362 364 366 357 361 356 357 358 361 359 361 359 358 359 362 364 364 366 364 362 364 363 362 360 358 357 350 349 365 360
325 323 330 337 331 328 337 337 340 339 342 338 341 344 339 338 332 340 337 342 343 347 347 343 343 344 343 340 340 339 340 340 339 340 340 340 342 343 345 347 348 349 348 346 349 355 358 357 360 360 360 360 361 362 362 359 360 359 359 362 356 357 359 359 361 356 358 360 363 367 364 359 357 354 356 360 359 360 357 358 359 358 359 361 365 363 360 367 369 373 362 360 354 353 347 350 348
320 322 328 330 330 330 335 338 339 340 339 343 343 336 338 339 337 338 336 342 344 345 348 342 342 342 341 341 340 340 341 341 340 340 340 341 342 344 345 347 347 347 344 345 349 351 355 359 360 360 360 360 360 359 358 360 361 359 357 355 356 358 357 357 361 361 359 360 362 363 365 358 360 357 356 356 359 358 359 357 357 362 362 362 362 361 357 365 365 363 367 360 361 365 356 353 354
319 323 328 330 329 331 330 338 339 341 340 342 337 335 338 339 341 337 339 341 345 348 347 342 341 339 339 339 340 339 339 337 338 338 337 339 341 342 343 345 346 345 343 344 349 352 354 355 358 360 359 359 360 357 359 358 362 354 352 352 353 361 357 357 360 360 360 359 359 363 361 359 355 358 358 361 359 362 363 362 364 360 358 362 361 361 362 363 364 363 366 361 362 363 360 361 361
324 324 326 327 329 330 330 326 335 338 339 339 335 334 337 341 340 334 343 347 347 342 344 345 339 338 338 338 339 339 338 336 336 338 338 339 339 340 342 344 343 343 343 344 348 353 355 354 353 355 356 362 358 357 360 360 360 358 356 358 360 358 358 361 359 358 362 359 362 364 363 365 360 361 360 362 363 363 363 365 363 368 365 364 363 360 366 366 367 367 364 363 366 371 363 366 359
320 323 323 325 328 329 329 327 334 336 337 341 338 335 339 341 339 334 340 346 345 341 342 339 339 338 337 337 337 337 337 338 337 338 335 337 336 340 341 341 342 341 341 344 350 355 353 353 353 354 355 357 358 355 360 358 361 359 360 361 358 356 358 362 358 360 366 359 361 362 367 363 358 363 361 364 360 363 363 364 364 364 365 366 366 363 365 365 370 364 366 368 367 366 365 366 369
319 322 318 321 325 324 328 325 332 337 335 341 341 334 332 334 330 339 343 346 344 341 340 339 338 338 337 337 337 336 336 337 337 337 335 338 339 341 340 341 341 340 342 346 351 352 351 352 352 354 356 359 358 356 357 359 359 357 358 358 360 358 359 360 359 359 361 364 366 367 369 368 367 365 369 364 364 364 365 365 362 364 366 369 365 362 366 371 368 371 371 366 367 365 365 361 359
318 317 320 320 320 320 326 328 332 335 336 341 338 318 324 329 336 340 344 342 342 342 336 337 338 337 336 337 336 337 336 337 335 337 337 337 339 340 339 340 341 339 343 348 351 350 351 351 353 353 357 355 357 356 361 359 359 359 367 358 363 360 358 360 362 363 365 366 367 367 364 362 365 370 367 365 367 361 363 365 363 363 367 368 368 368 370 370 368 367 364 365 363 367 357 360 363
310 315 319 315 314 314 323 325 332 332 338 338 336 318 324 330 335 341 342 344 340 336 334 335 337 336 336 336 335 336 335 337 336 337 337 338 339 340 339 340 339 341 345 346 349 349 350 351 351 352 356 355 355 357 357 360 359 356 358 359 360 363 358 360 362 361 362 362 364 365 363 363 365 369 367 365 366 363 358 365 362 362 365 367 370 367 366 370 369 364 363 362 358 366 362 366 356
313 309 309 314 312 315 321 326 332 328 333 337 331 320 323 329 335 341 343 344 342 336 335 335 336 335 335 336 334 335 335 336 338 337 338 338 339 339 338 338 338 342 344 347 348 349 349 350 352 352 354 354 355 357 360 361 359 362 358 360 361 361 359 358 362 359 360 364 366 366 366 367 369 369 368 368 364 365 359 361 364 366 364 368 369 367 368 367 365 364 364 362 362 357 357 358 363
312 309 309 310 313 315 317 323 331 332 332 333 329 320 326 330 337 340 343 342 341 336 337 335 334 336 335 336 334 335 335 335 337 336 337 338 339 338 339 338 339 343 345 346 348 348 350 349 352 350 353 352 354 353 360 363 364 362 359 358 358 361 358 358 361 362 362 366 367 367 369 369 368 368 367 367 369 364 363 364 363 363 365 365 369 369 367 369 371 361 369 366 365 363 355 349 359
308 310 307 312 312 314 312 322 333 332 332 325 329 325 327 331 337 339 342 341 340 337 334 338 335 334 336 336 334 335 335 335 335 336 337 337 339 338 340 344 341 343 346 347 349 348 348 348 350 350 352 354 355 357 361 360 361 364 360 359 364 358 358 357 361 363 365 365 365 365 369 370 369 368 368 368 368 362 363 363 364 368 369 370 375 370 367 365 365 363 364 368 367 366 361 353 355
306 306 306 308 313 314 314 314 323 326 329 326 326 325 328 332 335 338 339 343 341 338 339 338 340 336 335 335 334 335 336 334 336 338 338 338 338 339 339 339 341 343 345 347 349 352 351 349 352 356 352 356 356 361 364 364 364 365 357 359 359 359 361 363 361 359 363 364 364 367 367 369 369 368 368 367 367 362 364 366 366 367 367 371 370 364 365 364 365 363 361 366 368 369 366 359 357
309 309 307 308 309 311 311 318 330 326 323 324 323 321 324 330 333 336 339 342 340 338 340 340 339 338 340 335 334 336 336 335 337 339 339 339 339 339 338 338 341 343 345 348 353 351 353 351 351 356 357 355 357 359 360 358 358 358 354 356 357 357 357 360 360 359 361 363 364 365 365 365 366 368 368 367 366 366 365 365 364 365 367 368 368 363 361 363 360 361 361 359 363 365 364 361 358
312 311 310 309 309 312 316 319 322 327 322 322 323 324 325 328 333 335 338 340 339 338 337 339 339 337 336 336 335 336 337 335 337 339 338 340 339 339 339 340 340 343 347 347 347 348 348 348 352 353 355 358 359 357 356 355 354 356 356 351 353 354 357 358 357 358 358 361 363 363 365 364 361 362 364 367 364 364 366 365 367 364 366 368 367 365 362 363 364 365 364 367 361 361 360 357 357
309 310 310 309 311 309 316 318 322 326 319 320 322 324 324 328 332 335 339 338 336 336 337 337 338 339 338 338 337 336 338 338 338 339 337 339 339 340 339 339 343 341 345 345 346 348 349 347 350 351 354 357 358 357 357 356 358 355 354 352 352 354 358 356 357 357 359 361 365 364 364 362 360 359 361 365 365 364 364 363 366 367 369 369 365 363 363 368 367 364 363 366 367 362 356 351 351
311 310 310 309 309 312 317 318 322 323 320 318 321 321 323 327 331 335 336 335 337 341 340 339 336 338 337 338 341 337 337 336 337 338 338 339 339 340 339 339 340 341 344 343 346 348 350 351 355 355 353 355 358 358 359 359 359 361 356 355 350 354 359 358 356 356 359 361 363 363 363 362 360 358 360 364 365 364 363 364 368 369 365 368 366 364 364 366 368 363 364 365 360 361 362 359 360
310 311 309 307 310 310 309 317 321 321 318 318 323 319 322 327 330 333 335 336 336 339 340 343 344 339 337 338 339 336 336 336 335 337 336 339 338 340 340 340 341 341 345 343 345 348 347 355 357 358 357 357 359 360 360 359 359 363 366 361 360 355 355 359 360 359 362 362 360 360 363 361 361 360 360 364 367 366 366 367 367 369 367 367 370 367 365 364 367 367 362 363 365 352 347 349 356
312 312 311 310 310 312 311 314 317 319 319 319 325 319 319 324 324 327 333 336 335 336 341 341 344 345 344 344 343 344 338 337 337 337 336 339 337 340 341 343 341 340 343 343 345 347 347 349 356 359 359 358 360 361 362 364 363 363 365 364 365 361 360 359 356 354 357 358 359 361 362 363 363 361 361 364 364 363 366 370 367 368 368 370 367 367 367 361 362 364 367 368 363 361 349 352 357
309 313 313 313 312 312 312 313 313 310 311 315 317 307 312 319 323 324 328 330 331 336 335 334 339 340 340 338 340 341 341 341 339 339 338 339 338 341 342 343 340 341 342 344 346 346 348 350 357 361 359 361 357 360 363 364 363 361 360 358 355 359 355 354 352 351 353 354 357 361 363 363 360 363 364 365 366 366 368 366 366 366 365 370 370 367 366 367 365 362 365 364 362 363 373 354 346
307 309 315 314 313 312 312 311 310 305 303 311 316 307 306 317 320 323 325 326 325 333 333 334 337 337 339 341 339 341 339 342 341 341 339 339 339 340 342 343 341 341 343 344 345 345 349 352 357 358 360 361 359 361 363 364 362 360 359 353 355 357 357 356 361 358 356 358 360 357 362 361 362 361 360 365 366 363 370 367 367 366 366 366 370 369 367 361 357 361 362 364 363 371 369 366 356
306 313 314 314 312 311 311 311 310 308 313 314 314 312 308 310 316 321 324 324 325 327 331 335 336 338 338 342 341 339 342 343 339 342 341 340 340 340 342 343 342 343 343 344 344 345 350 355 358 359 360 361 360 362 362 365 361 361 360 358 356 357 352 357 359 363 356 361 359 358 361 359 362 362 364 369 367 368 368 369 369 368 369 364 368 366 363 359 362 365 367 370 372 376 371 369 359
309 313 313 312 312 312 312 311 309 309 308 305 309 313 306 309 315 323 322 320 322 326 328 331 335 335 339 340 341 343 342 346 344 343 345 341 341 341 342 343 343 344 344 343 343 346 352 356 359 360 360 362 362 364 363 363 364 363 361 357 359 359 358 357 359 359 366 361 361 361 363 360 366 368 368 366 367 367 371 369 369 371 368 367 368 366 363 362 362 367 367 369 368 370 367 370 370
312 314 315 314 313 313 313 310 309 308 306 302 308 310 304 309 316 319 322 322 321 325 328 332 335 333 334 336 340 344 343 346 345 344 344 343 343 342 344 345 344 343 344 345 344 345 348 354 358 360 360 362 362 364 364 363 364 364 362 360 359 358 361 360 359 360 363 363 364 364 369 369 362 364 367 368 369 367 369 372 367 366 368 364 364 364 363 366 367 368 368 364 367 365 376 371 363
315 314 312 311 310 311 312 311 310 307 301 303 308 309 307 306 313 315 317 319 322 325 329 332 334 336 339 338 341 343 342 344 346 348 348 346 344 345 347 346 345 343 346 345 343 345 347 350 357 357 361 361 363 364 364 362 363 363 361 361 359 358 360 361 361 361 366 364 362 362 364 368 365 362 363 368 366 364 367 368 362 365 364 368 366 362 366 360 362 362 361 367 369 369 368 368 363
313 311 310 309 308 309 309 308 309 301 299 305 309 309 309 301 309 319 322 325 328 328 324 328 331 333 335 341 339 341 343 344 344 344 345 346 353 351 352 348 347 346 345 345 343 344 349 352 356 357 361 361 362 363 363 360 360 361 362 362 361 360 360 356 359 359 361 361 362 364 366 364 364 363 364 364 362 360 367 367 368 366 366 366 367 369 370 365 363 362 366 370 371 370 369 367 362
311 310 309 303 300 302 298 302 297 298 298 306 309 309 306 305 315 320 324 325 328 330 329 330 329 332 335 339 341 339 343 345 345 346 346 347 349 349 346 346 349 352 347 347 343 344 348 353 357 357 359 361 362 362 363 362 361 361 361 361 362 363 362 363 361 361 361 362 361 364 365 361 362 363 361 362 359 363 366 367 364 370 367 365 372 371 371 371 369 370 368 362 367 366 370 369 364
309 307 306 302 297 296 293 298 301 301 304 308 308 311 303 313 318 324 323 327 329 330 332 332 333 332 335 337 341 343 343 344 345 346 346 349 348 347 349 351 353 351 347 345 344 347 350 352 358 356 359 361 362 363 363 363 362 362 364 362 362 364 363 362 361 358 358 363 364 363 360 359 362 359 357 362 360 361 363 365 367 369 372 372 371 366 366 370 372 372 370 370 362 369 370 368 368
309 311 308 304 302 298 294 297 295 297 301 304 310 305 307 309 313 326 326 328 330 332 332 334 335 335 336 338 339 340 342 344 346 345 346 349 350 351 349 349 351 353 351 348 347 350 353 356 360 360 360 361 362 363 363 362 361 363 364 363 364 363 361 361 361 361 361 359 356 358 363 360 359 360 362 365 365 365 365 367 367 368 370 372 371 371 369 371 375 371 378 369 371 369 369 364 363
311 311 311 305 303 308 299 302 300 301 300 301 304 306 312 314 324 326 329 328 328 331 331 333 333 334 336 335 337 339 341 342 344 346 346 345 349 347 349 348 350 350 351 349 350 352 352 357 361 361 361 360 361 363 363 361 362 362 364 364 364 363 364 361 366 366 366 361 361 362 365 368 366 365 365 365 363 364 366 365 367 365 371 368 371 372 372 371 373 371 371 371 372 363 366 364 366
308 309 303 306 312 309 304 305 306 305 302 299 307 310 315 320 322 324 325 325 326 327 328 330 332 334 336 337 338 337 338 341 345 346 347 346 347 347 347 349 350 350 351 351 351 349 353 359 359 362 363 361 360 364 362 362 363 362 363 363 362 362 360 359 356 356 352 356 362 361 361 361 364 369 363 362 364 368 369 367 364 361 369 371 371 372 370 372 373 373 369 372 372 365 368 367 364
308 303 306 312 314 312 306 298 302 300 296 299 305 307 308 311 305 322 322 322 323 325 325 328 330 334 334 336 338 339 340 342 344 347 349 352 350 349 348 349 350 352 352 350 350 352 352 356 359 361 362 361 360 361 361 361 362 361 363 363 363 362 358 357 356 355 354 356 360 362 359 361 360 360 359 358 363 364 369 368 368 367 365 366 367 367 369 369 372 370 368 373 370 370 371 370 368
308 306 312 304 300 299 305 302 294 295 295 298 302 308 309 312 310 317 317 318 320 322 324 326 327 331 333 335 336 338 340 342 344 344 346 347 347 350 351 351 351 352 357 355 351 353 355 352 354 356 359 360 361 361 360 361 361 358 359 360 360 360 359 358 356 358 357 355 352 354 355 358 357 363 367 371 364 361 365 366 370 365 367 367 366 366 369 370 370 372 369 368 371 373 374 372 370
312 313 308 310 306 303 301 303 304 302 297 296 298 305 303 313 314 317 316 319 320 320 321 322 324 326 329 332 333 335 337 340 342 344 348 349 349 352 352 352 352 351 351 352 351 352 351 355 355 352 354 359 360 359 360 360 360 359 358 361 363 363 362 360 359 358 353 352 353 354 354 353 357 358 360 364 364 362 362 361 360 359 360 361 363 363 364 368 370 371 366 365 365 369 369 368 365
304 304 303 305 306 310 308 307 303 301 299 298 298 299 306 313 319 318 318 319 320 321 321 322 323 325 326 330 331 333 334 337 339 342 345 349 350 350 349 350 351 353 354 354 351 350 350 354 354 355 354 355 358 358 356 359 360 360 362 361 359 360 357 357 354 354 354 353 353 355 352 352 358 356 358 358 362 364 364 363 360 362 359 363 366 364 365 367 369 370 370 369 368 370 368 367 369
305 304 303 305 303 301 298 297 307 304 301 296 297 299 308 315 321 319 319 321 320 322 322 321 323 324 325 327 329 330 332 335 336 337 340 344 347 348 349 350 353 352 352 349 351 351 351 351 351 350 353 358 358 353 353 358 359 358 356 358 360 360 358 357 353 351 352 352 352 353 355 354 352 357 357 354 359 358 361 361 360 360 362 361 367 369 360 362 365 367 366 361 363 369 369 368 369
Wind_Speed
9 10 10 10 9 7 7 2 2 1 1 2 1 1 1 2 3 4 4 3 5 4 8 8 11 7 8 11 14 15 14 4 4 4 8 8 13 14 14 18 18 16 16 14 13 13 13 14 15 17 15 15 15 15 14 14 13 13 12 14 15 14 12 11 10 7 6 7 10 13 14 13 12 13 13 11 11 10 10 10 10 9 9 9 12 12 11 12 16 22 19 15 13 15 14 13 16
11 12 12 9 8 6 1 3 1 2 2 1 1 1 2 2 3 6 5 3 6 10 8 11 14 14 17 16 15 19 18 14 19 16 13 15 16 15 19 19 18 17 15 14 14 14 14 14 15 16 15 15 15 14 14 14 13 13 13 16 13 11 10 10 7 6 5 6 10 13 13 12 12 12 11 10 10 9 9 10 10 9 10 10 11 11 11 14 15 20 19 15 13 15 15 12 13
10 10 8 9 3 2 3 1 3 1 2 2 2 1 3 3 5 5 5 5 13 12 11 12 12 10 15 14 15 18 13 18 24 21 14 18 16 10 17 19 18 18 17 13 14 14 12 13 12 15 15 15 15 14 14 13 13 13 14 16 11 8 9 8 6 3 6 10 13 13 13 13 13 12 11 9 9 10 10 9 10 10 11 10 10 11 12 14 15 22 16 16 14 13 14 10 14
9 8 9 4 2 4 1 3 2 2 2 4 4 4 5 7 8 8 9 10 12 12 11 11 9 11 17 19 17 21 16 13 18 19 13 14 12 18 19 19 18 16 15 13 13 13 12 13 13 14 15 15 14 14 13 13 13 13 15 15 10 7 8 8 7 7 11 13 14 14 13 13 11 9 10 11 10 10 10 10 10 10 11 10 10 11 12 13 15 18 18 12 12 15 13 11 14
10 9 9 5 0 3 2 2 1 2 4 3 4 7 11 8 10 10 7 11 12 11 11 12 12 12 14 14 9 9 13 18 17 14 13 14 18 17 19 19 16 15 15 15 14 14 14 17 15 15 15 15 14 13 13 13 13 14 16 13 11 9 7 8 6 8 12 13 13 13 13 11 11 11 11 11 10 10 10 10 10 11 11 11 10 10 10 14 16 20 16 11 11 16 15 13 15
10 9 4 2 2 1 2 2 3 5 2 2 4 7 7 11 10 9 11 13 14 10 11 11 12 13 14 13 10 13 14 11 14 13 16 16 20 20 19 17 15 15 15 15 15 13 14 17 17 16 15 15 14 13 13 13 13 13 15 13 12 10 8 8 7 8 11 12 13 13 12 11 11 11 11 11 11 11 11 10 9 10 10 11 9 10 12 15 16 19 16 10 9 14 15 15 17
4 6 1 2 3 1 2 2 4 1 4 3 5 7 7 6 9 9 11 13 12 11 11 16 17 16 14 11 14 11 14 17 13 15 16 19 19 19 18 16 16 18 17 15 14 15 16 17 17 16 16 15 14 13 13 12 13 12 13 11 11 10 10 8 8 9 11 13 13 13 12 11 11 12 12 11 11 10 10 11 10 10 10 11 10 12 13 15 17 18 15 10 10 12 13 14 16
7 3 1 2 2 1 2 2 3 4 2 3 3 9 8 7 6 7 10 10 10 9 12 12 12 16 19 15 13 13 14 12 19 21 23 20 18 18 18 17 16 18 17 16 15 13 18 17 16 16 15 14 14 14 13 13 13 12 12 11 10 10 11 10 11 11 12 13 13 13 12 10 11 12 12 11 10 11 10 10 10 10 11 12 11 12 14 17 16 18 17 12 12 13 13 13 15
3 3 3 3 4 2 2 3 2 4 4 5 7 2 3 4 3 7 8 8 13 10 14 16 15 16 14 17 12 14 14 19 21 23 22 22 20 17 13 16 16 16 17 16 15 14 14 16 16 16 15 15 14 14 13 13 13 12 11 11 10 10 11 11 11 12 13 14 14 13 12 11 12 13 12 11 10 10 10 10 10 11 11 13 15 14 16 17 16 18 17 14 14 13 14 12 12
0 3 1 3 4 5 1 1 2 2 2 2 5 2 2 2 2 8 8 12 10 13 13 15 17 20 18 19 13 13 14 21 22 21 20 20 19 18 16 16 18 19 17 16 14 14 12 18 17 16 15 15 15 14 13 12 12 12 11 11 10 10 11 12 11 12 13 14 13 13 13 13 12 11 10 9 10 11 12 12 12 12 13 13 15 16 17 17 15 17 17 17 14 13 13 11 10
3 1 3 2 3 2 1 2 2 4 2 3 5 2 2 2 3 2 13 9 5 12 16 18 17 19 16 13 11 14 20 20 21 21 19 19 18 16 16 16 16 17 17 17 15 14 13 13 18 16 15 15 15 14 12 12 12 12 11 11 11 11 12 12 12 12 12 13 13 14 14 14 10 9 10 11 12 13 13 13 13 13 14 14 15 16 18 20 17 14 16 18 16 14 11 9 8
4 3 3 3 2 4 1 4 6 4 5 4 4 1 2 3 5 7 7 10 6 11 13 10 12 18 18 14 12 15 19 20 19 18 18 18 17 16 14 13 16 17 18 17 16 14 13 12 11 14 15 15 14 14 12 12 12 12 11 11 11 11 12 12 12 12 12 13 13 14 15 14 10 10 11 12 13 13 13 13 13 14 14 15 16 16 16 20 20 14 14 16 15 13 10 9 10
6 2 4 1 4 0 4 4 5 7 5 3 5 1 2 2 10 5 7 6 8 12 11 13 17 13 16 14 12 17 19 19 19 18 17 15 17 14 13 15 16 16 17 17 16 15 15 12 12 11 13 15 14 13 12 11 12 12 11 11 10 11 12 12 12 12 12 13 13 13 14 14 13 12 12 12 13 13 13 13 13 14 15 16 15 16 17 19 21 17 17 15 14 13 11 11 10
6 4 4 3 4 2 2 3 3 5 4 2 2 1 1 5 6 5 4 6 8 8 12 15 12 16 17 16 13 14 16 19 19 17 15 15 15 16 16 14 16 16 16 16 15 15 14 13 12 12 12 11 11 11 11 11 11 11 12 11 10 11 12 12 12 13 12 13 13 14 14 13 13 13 13 12 12 12 13 13 14 15 15 16 16 17 17 18 19 18 18 16 15 14 13 11 10
6 4 2 1 2 2 4 0 2 6 5 3 1 3 5 5 5 7 8 5 5 5 9 6 16 12 12 17 14 14 17 20 19 17 15 16 16 17 18 15 15 15 15 15 15 14 14 14 13 11 11 11 10 8 7 9 11 12 12 11 11 11 11 12 13 13 13 13 14 14 15 13 13 13 13 12 12 13 13 14 14 14 15 16 16 16 17 17 17 18 17 16 15 14 12 11 10
7 7 5 5 2 2 4 1 1 6 5 4 3 2 6 6 3 5 3 4 3 1 6 4 10 6 16 13 19 20 21 20 19 19 15 16 16 14 16 16 14 14 13 13 12 12 13 13 11 10 10 11 10 9 9 8 10 12 12 12 12 11 11 12 13 12 12 13 13 14 14 11 12 10 12 10 11 13 13 12 14 14 14 15 15 16 16 16 16 16 16 15 14 14 12 11 9
7 4 1 3 4 2 5 2 2 3 7 5 4 5 5 5 3 5 6 8 2 4 3 11 7 15 15 16 21 22 21 19 19 20 18 14 11 11 10 10 11 11 10 11 10 11 13 12 12 9 9 10 10 10 8 8 8 11 10 12 12 12 11 12 13 13 12 12 12 13 10 7 5 5 7 7 10 8 12 13 13 14 14 14 14 15 15 14 14 14 14 14 15 14 12 11 9
6 3 2 6 3 4 9 8 4 9 10 8 6 4 6 7 4 4 4 4 5 4 6 7 15 12 17 20 21 21 21 20 20 19 16 14 12 11 9 9 11 11 10 10 10 11 11 11 12 11 9 13 11 8 7 7 7 7 7 8 8 9 10 11 9 7 8 6 10 8 6 4 2 3 5 8 6 9 10 13 13 13 13 14 13 13 13 13 13 13 13 13 14 14 13 5 5
8 4 2 3 3 5 9 8 10 10 10 10 8 4 5 6 6 3 4 1 0 1 5 10 15 17 21 21 22 21 20 20 19 19 18 17 14 15 12 10 11 11 10 9 8 11 9 9 10 11 11 11 11 8 8 7 8 6 7 7 7 9 8 7 6 6 4 5 5 6 6 3 3 3 3 6 7 12 10 12 12 12 12 13 12 12 11 12 13 13 14 14 15 15 7 4 3
7 5 1 2 8 9 10 10 10 8 12 11 8 5 5 6 4 2 3 4 5 3 8 11 16 22 22 22 22 21 19 19 18 18 17 17 16 15 14 13 13 12 13 11 10 9 10 9 10 10 10 10 9 8 8 7 7 7 4 6 6 5 4 5 5 5 4 3 5 6 4 4 4 3 9 13 11 7 8 12 13 13 12 10 10 7 8 8 10 10 11 12 10 4 5 5 4
3 1 2 2 10 10 11 13 12 13 10 9 8 6 6 6 5 3 5 5 1 3 4 12 20 21 23 23 22 20 20 19 18 17 16 16 15 12 12 12 11 11 11 11 10 10 11 11 10 10 10 9 10 8 8 7 6 5 5 5 6 4 2 2 4 4 5 4 5 4 7 5 6 5 5 5 4 5 5 5 5 5 4 5 7 4 3 4 4 4 4 5 3 2 2 2 2
5 3 6 1 12 7 13 11 18 13 11 9 8 8 6 5 5 3 4 4 6 6 5 6 17 22 22 23 21 20 20 19 18 17 17 16 15 14 12 11 12 11 11 10 11 11 11 11 10 9 10 9 10 8 8 7 6 4 5 4 4 4 4 2 2 3 4 4 3 5 8 7 5 4 3 3 4 3 4 4 4 4 4 4 2 3 3 3 3 4 5 6 4 6 6 6 5
5 8 5 9 17 6 16 14 15 17 13 10 8 8 8 4 4 2 5 2 7 8 7 14 17 21 21 19 20 20 20 19 18 17 17 15 15 14 13 11 11 11 9 10 11 10 11 11 11 10 10 9 10 9 8 7 5 5 5 6 4 3 3 3 3 3 4 4 4 5 6 4 6 5 4 4 4 3 3 4 4 3 2 1 1 2 2 2 2 5 5 7 5 4 3 1 2
6 5 7 13 3 5 18 17 18 16 14 11 9 10 9 9 6 3 2 7 11 9 9 2 16 18 20 20 19 20 19 19 18 16 16 16 15 15 14 12 10 10 9 11 11 12 10 12 11 10 9 10 9 9 8 8 6 6 5 4 4 4 4 4 4 4 4 4 4 4 5 5 5 5 4 4 4 4 4 4 4 4 2 1 0 2 2 2 3 1 2 3 3 3 5 3 3
8 6 3 1 3 3 15 16 18 19 15 11 10 9 11 9 7 6 3 4 4 6 5 1 14 19 18 19 19 19 19 18 17 16 14 13 15 15 15 11 12 10 11 11 11 12 15 14 13 12 10 10 9 9 8 6 7 8 7 1 3 6 7 7 5 6 4 3 3 4 3 6 4 5 5 5 3 4 3 4 6 2 3 2 1 2 3 3 1 1 2 1 2 2 3 3 3
9 6 6 2 3 3 6 19 19 19 13 12 8 8 9 8 11 6 8 7 7 3 7 7 14 19 20 19 19 18 17 18 18 16 16 13 15 16 15 13 12 11 11 12 12 11 12 14 16 14 12 10 10 9 6 6 7 12 9 9 8 6 4 7 8 6 5 4 3 3 2 3 4 3 4 3 3 3 3 3 2 3 3 3 2 2 3 2 2 2 0 2 2 2 2 2 2
2 10 8 5 3 4 4 9 15 16 18 15 11 11 8 7 5 3 7 6 8 9 10 14 18 19 19 18 18 17 18 18 18 15 15 14 14 13 14 14 13 13 12 13 11 9 10 12 13 13 12 10 10 9 8 7 8 12 13 12 8 7 5 5 5 5 5 5 3 2 3 2 3 0 4 4 3 3 3 2 2 1 2 2 3 2 0 1 1 1 2 1 2 0 1 1 3
3 10 7 12 8 5 4 8 21 17 15 14 14 12 7 7 5 5 6 6 4 5 14 18 17 17 17 19 18 16 15 16 14 15 16 16 12 12 13 11 13 13 12 13 10 9 11 12 13 12 12 8 9 10 8 8 6 6 6 6 5 10 6 2 4 3 4 8 7 4 1 6 5 2 4 1 5 3 3 3 2 2 2 2 3 4 4 3 2 2 1 2 2 3 2 2 2
7 7 8 5 7 8 8 7 14 13 15 16 14 13 6 7 6 6 5 4 7 9 10 17 16 17 17 18 16 14 15 14 13 13 14 12 13 12 14 13 13 12 10 13 12 12 13 12 12 12 11 8 8 10 9 7 6 7 6 6 5 9 6 4 5 4 5 7 7 4 4 5 6 4 3 4 4 3 3 3 3 2 2 1 2 5 3 0 2 1 1 3 3 2 2 2 3
9 5 6 8 9 8 9 8 14 15 14 19 15 7 7 7 6 8 6 4 3 3 12 13 14 16 16 16 14 15 14 14 14 13 12 12 12 14 13 14 15 12 10 10 13 12 11 9 9 9 10 10 8 9 6 7 7 5 3 6 4 7 7 5 6 4 5 6 7 6 6 4 3 2 4 4 2 3 3 2 3 2 1 2 3 2 2 2 2 1 1 1 2 2 2 3 2
7 8 8 8 7 8 13 9 15 13 14 17 12 2 4 8 7 8 7 5 4 6 14 15 13 15 15 15 14 14 15 13 14 15 14 15 12 13 13 14 14 13 11 12 13 13 11 10 9 9 10 9 9 9 8 7 6 8 6 5 4 5 7 3 4 5 5 6 6 6 6 4 2 3 5 4 2 2 3 1 2 3 2 2 2 2 3 2 1 3 4 3 5 2 2 1 2
8 8 10 9 8 6 9 12 18 14 12 15 11 3 8 10 10 9 9 8 6 4 10 16 15 14 16 14 15 15 15 15 15 16 15 15 13 13 13 14 13 14 13 12 12 12 12 11 10 11 11 10 8 7 6 6 6 5 6 5 6 4 6 5 3 5 6 6 6 6 6 5 4 5 4 4 4 2 2 1 2 3 2 2 1 2 2 1 3 2 2 3 3 5 4 1 2
8 10 8 10 10 3 11 12 15 16 15 13 9 4 8 8 11 11 9 8 7 6 9 13 15 15 15 15 14 14 15 16 14 16 16 14 12 12 12 14 12 14 14 13 12 11 11 11 9 13 12 10 9 9 8 5 5 6 6 7 8 6 6 6 5 4 4 5 5 5 4 5 5 4 4 3 2 4 3 2 3 5 3 3 1 1 1 1 1 3 2 2 2 3 3 3 2
9 10 10 8 10 10 6 9 15 13 12 10 9 6 6 9 12 10 10 11 9 5 6 8 11 13 14 14 14 15 14 14 15 14 17 15 12 13 12 11 14 13 14 13 13 12 12 10 10 10 11 10 7 6 6 5 5 5 4 6 6 6 6 6 6 5 4 5 5 4 4 4 4 5 3 3 1 3 3 1 0 4 2 2 0 1 2 1 0 2 2 1 1 1 2 3 1
9 10 10 10 11 11 14 12 16 14 11 9 9 8 10 13 11 11 11 10 8 6 2 6 5 6 14 14 15 16 15 15 15 14 17 14 16 14 12 12 14 13 13 14 11 9 8 8 8 9 10 9 8 6 5 4 6 4 5 7 8 5 3 4 6 6 6 5 5 4 4 4 4 4 3 2 2 1 3 2 2 1 1 1 1 1 1 1 1 1 0 3 0 1 2 2 3
11 11 10 11 11 12 12 14 21 14 11 8 8 8 10 13 11 11 10 10 10 8 5 4 6 4 7 12 15 16 15 16 14 15 17 14 13 14 13 11 12 12 12 12 10 9 8 7 10 8 7 10 8 6 5 5 5 5 6 6 7 5 4 4 4 5 6 6 7 5 4 3 3 3 3 3 1 1 1 0 3 3 3 2 1 1 2 2 2 0 2 1 2 1 2 4 3
10 11 10 11 13 10 6 14 18 16 12 9 9 13 10 9 11 11 11 11 8 7 8 5 4 2 4 12 15 16 16 16 16 16 17 16 16 14 13 11 12 13 12 14 13 12 11 7 10 9 8 9 7 7 6 5 6 4 5 7 6 6 5 4 5 5 6 6 8 6 5 4 3 4 2 3 3 2 0 1 1 2 3 2 2 2 3 1 4 3 1 1 1 1 2 3 1
19 14 11 10 12 11 11 12 13 12 8 10 7 12 10 12 10 13 12 12 12 11 8 8 6 6 4 13 13 16 16 14 17 16 17 16 15 16 14 11 13 14 12 14 13 12 11 11 11 9 8 8 8 8 6 6 5 4 5 5 8 6 5 5 4 4 4 6 7 6 6 6 5 4 2 3 4 4 3 2 2 2 2 3 1 2 3 1 3 3 4 3 1 1 4 3 3
11 9 9 11 10 4 8 8 10 10 8 9 10 11 10 13 10 11 13 13 10 7 10 9 10 5 5 7 14 14 16 15 17 17 17 15 17 17 14 12 13 14 15 15 13 12 11 9 8 8 8 8 7 8 6 5 5 5 5 5 7 7 6 6 6 6 5 6 7 5 5 5 4 3 5 4 4 4 4 4 3 3 2 3 2 3 4 3 2 2 1 2 1 3 2 2 2
10 9 10 10 10 11 11 10 15 12 7 10 14 10 8 12 13 13 12 12 9 10 10 6 7 8 7 9 14 15 16 16 18 17 18 17 17 15 14 13 12 13 13 14 14 13 12 8 8 8 8 8 7 7 6 5 6 6 4 5 4 8 6 6 7 6 5 6 7 7 5 6 8 6 5 5 4 2 2 3 2 3 3 3 2 3 3 3 3 3 3 2 1 2 3 3 2
10 13 11 11 14 11 9 11 12 12 11 10 19 11 7 9 12 12 12 12 12 11 9 6 4 4 7 6 10 7 10 16 17 18 18 17 17 16 15 12 14 13 13 14 14 13 11 13 11 9 7 8 6 8 7 5 5 5 4 4 3 5 7 6 7 5 6 5 6 7 6 7 7 6 6 5 4 3 3 1 1 2 3 2 3 3 3 3 4 3 3 2 2 1 2 2 2
9 15 16 13 8 11 12 9 11 5 9 10 15 7 9 14 16 14 13 13 13 13 11 10 9 9 8 7 8 13 15 13 16 17 18 17 17 15 15 14 16 14 13 14 13 14 12 12 11 8 7 6 8 9 6 6 4 6 5 4 6 4 6 6 9 9 8 9 7 6 6 5 4 3 2 4 6 5 4 3 3 2 4 3 1 2 2 3 3 3 4 2 2 3 2 2 3
9 11 15 16 16 14 11 11 4 6 8 10 12 8 7 12 14 12 13 14 16 17 14 13 12 11 8 7 4 10 14 12 12 15 16 17 17 16 16 15 16 15 14 14 13 13 13 13 11 10 8 6 8 9 7 6 5 5 5 6 5 5 5 6 5 4 7 6 6 7 7 8 7 6 9 6 6 7 5 5 5 4 4 5 3 2 2 5 3 3 5 2 2 2 2 1 2
10 7 13 13 13 12 7 10 10 8 6 10 16 10 4 7 10 16 17 16 14 15 15 16 13 12 11 9 9 13 10 8 13 12 14 16 16 16 16 16 15 15 15 15 14 14 12 12 12 10 8 7 6 9 8 7 7 6 6 6 5 5 6 4 5 5 8 6 7 8 7 7 11 11 6 5 6 5 6 6 6 3 3 4 4 4 6 5 3 3 5 2 2 2 1 2 2
8 6 5 10 12 8 10 7 9 10 8 8 13 12 7 8 14 16 15 14 15 13 14 13 13 9 8 10 13 11 12 10 11 12 8 13 17 16 17 16 15 16 15 15 13 13 12 12 12 10 10 8 7 10 8 7 7 7 6 6 5 4 5 5 4 5 4 6 5 7 6 6 6 4 7 7 7 7 6 5 4 4 3 3 4 4 3 2 4 3 6 4 2 1 2 1 0
14 10 16 15 12 9 12 10 11 9 8 9 12 10 5 7 9 11 13 9 2 8 11 13 16 20 14 13 12 12 11 10 12 12 12 11 13 17 17 16 16 14 14 14 14 14 14 12 13 12 11 9 8 11 8 8 9 7 7 6 6 5 4 5 4 6 6 6 4 6 6 6 6 6 5 5 5 6 5 4 4 5 5 3 1 3 3 4 3 3 3 4 3 3 1 2 2
9 10 10 5 12 10 8 3 3 4 9 11 13 14 9 5 8 10 11 10 13 6 0 6 11 12 20 19 15 13 13 13 10 9 7 9 12 8 10 16 14 14 13 15 14 14 14 14 13 13 11 9 10 11 10 9 9 8 7 7 6 6 5 5 5 6 4 6 7 6 6 5 5 6 5 4 6 7 6 5 6 6 4 3 3 3 3 4 5 4 4 3 3 2 1 2 1
14 6 8 6 3 7 9 5 4 7 10 12 13 15 17 9 10 8 6 10 17 15 14 11 12 13 12 9 13 13 13 11 12 11 11 9 3 6 3 9 12 14 14 15 14 14 13 13 14 13 11 11 10 11 11 11 8 8 7 7 7 6 6 5 6 6 6 7 5 6 6 6 4 5 5 5 6 8 6 5 3 4 3 3 4 4 2 1 1 4 3 4 2 3 3 1 2
13 8 8 9 8 6 8 5 10 9 9 9 14 13 8 5 10 12 14 13 15 15 14 13 12 14 12 13 14 13 12 12 11 9 10 9 6 5 6 4 5 7 11 13 13 15 14 13 15 14 13 12 10 12 12 11 9 8 7 8 7 6 6 5 5 5 6 6 7 5 6 6 6 5 4 6 6 6 6 5 5 4 5 4 2 3 1 1 1 1 4 5 3 3 2 2 1
11 10 8 10 10 10 9 10 7 8 13 11 13 13 3 8 10 10 11 10 10 10 10 12 12 12 14 11 11 11 11 11 12 10 10 8 8 7 4 2 3 5 10 13 13 12 13 14 14 15 13 12 10 12 12 11 10 9 8 8 7 6 6 5 5 6 6 5 5 6 7 7 7 7 7 6 7 6 6 6 6 5 4 4 4 3 2 3 2 1 3 2 4 3 3 3 2
12 11 10 9 9 8 10 9 10 11 7 12 13 12 10 11 6 9 10 12 9 8 6 6 8 8 9 11 12 13 11 11 8 9 11 7 7 8 7 6 5 4 7 7 10 12 12 13 13 14 13 12 12 12 11 12 10 9 8 8 7 6 6 6 5 5 6 6 7 7 5 6 6 7 7 5 5 6 6 6 6 7 5 5 5 5 4 4 2 3 1 3 2 4 2 3 3
12 11 9 10 12 7 10 9 11 11 10 10 11 2 7 9 13 11 12 11 9 8 7 7 9 9 7 6 12 11 10 10 11 10 9 8 8 7 6 7 7 6 4 5 7 6 13 11 14 14 14 13 13 11 11 11 10 9 9 8 8 8 6 6 5 5 5 6 6 5 6 5 5 5 7 7 7 8 7 7 7 6 6 5 4 4 3 3 2 3 2 2 1 3 4 3 3
10 12 15 12 9 12 9 7 10 10 10 10 6 10 13 13 11 13 13 13 11 10 8 8 12 12 9 8 4 10 9 10 10 10 10 14 10 10 7 7 7 7 6 4 4 10 13 9 14 14 13 14 14 12 12 11 10 10 10 10 9 9 9 9 9 9 9 7 6 5 6 7 5 3 6 7 8 6 5 6 6 7 6 5 5 4 4 4 3 2 3 3 3 3 4 3 3
2 13 13 12 14 13 8 7 6 11 11 9 11 15 13 13 9 10 10 12 10 11 9 9 11 14 11 8 8 7 7 7 8 9 9 9 7 10 10 7 6 4 7 8 8 4 5 11 10 12 14 13 13 14 13 12 11 10 10 11 10 10 10 11 10 10 8 7 6 5 5 6 6 7 6 7 6 7 5 6 5 4 7 6 6 6 5 5 4 4 5 4 4 3 2 3 3
11 5 4 11 12 13 9 7 8 10 11 9 13 16 12 11 11 12 13 11 10 10 9 8 10 12 11 10 11 8 5 5 7 8 8 10 10 7 7 7 6 5 7 9 7 5 2 5 12 8 13 13 14 12 12 10 12 10 10 11 12 10 10 10 8 8 8 7 9 8 7 6 8 5 4 4 6 7 5 6 5 5 6 6 6 5 6 4 5 4 4 4 4 3 3 3 3
16 11 8 8 7 10 12 9 7 6 7 10 11 16 10 7 8 9 9 13 11 10 9 9 9 11 9 9 8 8 10 9 2 7 6 6 8 8 7 6 7 7 6 7 9 6 7 7 6 7 8 7 10 11 11 12 12 11 11 10 10 8 8 8 7 9 10 9 8 9 8 9 7 6 6 4 5 6 6 7 7 7 6 7 6 6 7 5 5 4 4 5 4 4 4 4 4
12 9 7 7 9 6 9 8 12 8 6 8 8 7 7 9 10 12 11 11 10 11 10 9 8 8 9 8 8 5 8 10 11 7 3 4 4 8 9 7 4 5 8 8 9 9 6 5 6 9 11 10 6 7 9 8 9 9 10 11 12 11 12 10 11 9 9 8 8 8 9 7 6 6 7 7 6 5 6 6 7 6 7 6 6 5 5 5 5 5 4 4 4 5 5 4 3
13 9 10 9 12 12 10 11 12 10 7 5 1 11 6 7 7 10 11 9 11 10 11 10 8 7 7 6 8 8 5 7 10 11 12 7 8 8 8 6 5 6 5 7 6 5 5 6 7 7 8 5 5 2 6 4 7 10 10 12 13 12 12 10 12 11 10 9 9 8 8 7 9 7 7 9 7 7 7 7 7 7 5 6 6 5 7 6 6 5 5 6 5 5 5 4 3
Wind_Direction
199 209 206 213 214 225 233 155 277 163 189 297 267 272 54 258 151 172 159 163 98 134 70 96 102 85 96 84 85 65 35 56 51 133 116 133 140 148 138 132 134 135 136 133 132 139 145 148 150 148 142 122 120 114 114 109 108 111 113 102 99 115 116 112 112 118 113 104 94 89 83 83 80 80 85 89 85 87 94 98 91 93 84 75 81 85 89 91 84 89 83 98 102 100 103 107 109
201 202 203 200 215 219 200 41 258 191 214 269 168 231 227 227 196 156 157 180 113 113 134 111 110 111 108 103 91 71 49 66 81 90 100 128 141 139 140 136 141 137 134 134 137 136 137 142 142 129 128 123 117 115 111 110 113 113 115 106 109 113 116 106 115 126 117 80 83 85 89 90 91 88 94 95 97 96 94 96 99 98 100 94 84 88 87 77 85 81 95 103 99 103 103 110 106
212 215 214 202 209 238 100 143 255 83 223 188 157 198 200 162 150 179 180 175 115 119 88 76 75 79 80 76 73 84 85 85 93 100 113 132 131 135 139 138 138 135 135 138 136 133 130 128 126 125 123 118 114 113 112 116 118 118 110 103 108 113 99 94 96 80 78 76 69 75 87 87 81 90 95 101 96 95 96 95 95 101 102 104 102 97 91 94 91 99 99 92 98 94 107 119 109
259 262 257 131 206 355 253 194 268 268 193 191 162 155 177 183 159 173 203 127 111 105 106 96 74 77 89 85 94 97 95 84 99 117 123 140 133 144 141 139 135 135 136 135 132 129 124 130 127 124 121 116 114 114 118 120 119 113 99 102 112 103 101 106 95 81 68 67 69 74 74 78 85 89 92 96 100 102 101 100 100 102 106 107 105 98 99 101 91 91 85 101 108 112 110 118 107
244 262 254 210 93 210 230 273 252 232 230 172 146 165 169 190 173 183 147 122 107 97 109 104 94 86 85 98 103 95 104 106 110 117 122 125 134 139 135 133 136 132 132 131 129 125 125 128 129 124 119 116 116 119 119 117 113 108 108 115 122 114 111 101 102 88 83 78 83 86 88 94 95 92 90 94 97 97 96 98 101 95 94 93 98 99 94 85 88 82 90 106 118 112 115 115 111
239 255 226 228 178 338 263 270 237 243 281 126 189 107 161 145 154 144 139 106 114 130 110 102 92 100 90 83 93 107 128 115 120 114 124 129 137 137 135 132 131 127 128 126 125 122 128 131 127 124 119 118 119 119 116 112 107 108 115 128 123 122 113 110 106 96 91 86 84 86 87 89 90 91 95 93 94 87 87 88 94 98 98 110 106 101 92 91 86 100 109 112 105 102 115 118 112
216 227 209 35 22 151 273 293 257 160 248 257 148 133 162 153 148 151 123 126 105 104 103 104 109 102 95 95 82 77 96 117 119 123 127 134 134 137 131 129 130 125 126 125 121 123 126 127 125 122 121 121 120 117 112 107 107 108 107 109 112 115 116 111 106 100 90 92 93 93 91 90 91 88 88 86 90 96 100 100 98 98 100 98 100 99 98 92 89 97 102 112 112 109 110 115 113
230 279 70 180 267 223 228 257 233 212 116 244 31 153 153 168 158 134 134 126 129 135 129 116 91 95 92 99 102 112 116 111 117 124 128 133 135 133 134 130 128 130 124 119 119 119 124 125 124 122 122 121 118 113 110 108 107 105 109 113 115 110 107 105 108 102 100 103 101 97 96 97 95 93 88 93 98 96 100 100 100 105 110 107 103 105 99 97 103 110 117 129 123 118 116 120 119
47 4 45 279 258 226 243 219 146 6 120 236 161 69 62 16 288 120 128 124 132 113 110 111 112 102 101 96 87 111 108 116 118 125 130 133 133 129 128 132 130 122 120 117 119 123 124 126 124 123 122 119 114 111 110 110 107 110 111 115 116 109 103 102 98 96 99 99 100 103 105 103 99 97 99 105 109 108 110 110 109 108 108 109 110 105 104 105 107 110 118 126 122 122 122 121 122
239 152 266 281 331 304 76 270 203 124 251 58 127 142 48 61 74 109 117 79 75 101 92 94 98 101 108 102 112 119 122 125 127 127 131 131 128 132 137 130 125 123 121 124 125 123 126 128 124 123 121 115 113 113 113 111 110 112 114 114 111 108 103 103 100 98 97 96 99 102 103 96 95 103 114 117 112 108 104 105 106 106 104 107 109 113 107 106 113 115 115 115 117 117 115 119 123
210 144 72 309 239 289 256 115 102 141 125 141 96 69 10 3 97 346 102 93 95 110 110 110 110 109 104 98 99 116 126 129 131 130 129 126 125 128 126 123 126 125 126 129 124 124 128 126 124 121 117 115 114 114 115 115 113 112 116 117 115 108 106 101 98 99 99 101 105 107 104 98 102 118 128 114 103 97 100 100 103 100 101 104 107 108 111 114 110 112 111 114 120 119 120 130 130
268 124 194 282 339 356 342 127 123 105 101 91 103 9 341 347 26 48 22 90 127 118 117 127 106 112 108 119 120 129 132 132 127 124 128 129 129 126 124 127 126 126 127 122 125 128 125 127 123 120 115 115 116 118 117 116 115 114 113 116 113 109 105 104 104 101 100 103 106 107 108 112 120 118 102 97 98 99 100 101 102 105 104 106 107 107 107 109 112 116 120 117 118 118 126 133 127
251 194 248 223 351 150 293 133 120 132 135 107 119 22 343 30 53 111 127 125 104 110 99 108 120 120 116 117 129 130 134 131 129 133 131 127 120 123 130 128 128 127 123 128 127 127 132 128 127 126 121 119 121 121 116 120 116 116 114 114 116 113 109 108 108 104 104 103 105 106 107 116 118 109 103 101 100 100 100 102 103 104 104 105 106 107 107 112 119 128 123 123 122 126 133 132 124
236 248 317 319 187 78 198 156 142 130 100 106 25 68 353 52 87 142 68 93 119 113 124 135 124 112 107 121 135 139 135 134 127 133 130 127 131 131 129 126 130 129 131 127 128 134 134 134 129 127 131 127 123 119 122 122 120 117 119 117 118 115 111 112 108 107 105 106 107 108 110 111 108 106 104 102 101 101 102 103 105 106 107 107 109 110 111 114 117 121 124 126 130 134 129 126 129
235 220 133 85 317 59 40 268 174 113 110 154 194 157 96 104 149 130 127 112 92 114 48 49 119 128 143 141 143 145 140 139 137 133 128 131 130 130 133 133 133 132 127 129 136 137 134 129 128 136 134 133 131 125 125 125 121 121 122 124 118 115 114 113 111 112 114 115 111 110 112 113 108 104 105 105 103 103 103 104 105 107 108 108 110 113 117 117 119 121 122 125 124 122 128 132 133
227 259 95 282 313 126 104 104 318 103 116 179 161 132 111 96 73 99 41 328 129 357 73 120 166 119 143 137 140 141 140 141 134 130 128 128 129 129 130 134 134 127 128 132 135 133 128 127 132 134 134 134 133 126 123 123 121 124 126 126 122 120 119 113 113 112 112 113 112 111 112 109 107 105 103 101 101 102 104 105 107 108 110 112 113 115 115 117 119 122 124 126 127 128 131 135 134
233 252 348 320 315 125 83 357 208 108 130 144 157 172 136 108 76 63 37 3 128 98 178 178 130 142 141 137 137 139 140 136 133 133 131 127 125 128 131 128 126 131 132 132 131 129 126 128 131 127 127 112 107 117 126 123 128 128 127 121 120 122 117 112 112 115 112 111 109 105 90 79 92 109 105 104 102 101 107 107 107 109 112 115 115 115 117 120 121 123 126 127 130 132 132 133 138
255 268 43 320 314 31 122 166 159 130 140 146 170 157 121 111 103 84 106 41 2 358 323 142 138 131 129 132 137 138 138 139 139 137 138 138 135 131 135 136 136 135 136 131 134 123 121 127 128 130 128 123 124 129 121 127 127 129 126 124 122 120 120 119 119 116 112 101 102 102 94 90 65 87 110 111 108 109 108 108 108 110 113 115 116 117 120 123 125 123 128 131 133 133 133 133 148
241 106 310 203 265 99 90 131 140 141 138 145 138 157 139 102 137 170 165 132 82 114 250 148 138 127 128 136 139 140 143 142 142 140 145 143 143 139 143 146 141 136 131 122 119 123 122 127 126 126 121 124 123 128 127 131 135 132 132 138 127 131 133 126 122 115 115 121 121 105 99 113 107 113 126 119 114 113 112 111 109 110 111 113 118 125 129 133 138 141 140 147 149 146 136 147 162
211 212 177 240 278 88 103 137 148 127 131 136 141 118 112 121 121 163 156 148 190 197 151 151 132 137 141 140 143 144 146 143 144 147 146 146 146 146 148 147 145 142 139 137 136 129 133 128 128 122 126 125 125 123 127 134 136 137 134 133 126 127 126 123 128 125 130 147 126 109 115 140 141 140 122 115 112 111 109 110 112 112 111 111 112 114 127 135 138 143 151 157 168 187 151 168 162
16 267 152 238 265 105 100 131 140 134 134 138 126 120 98 73 51 85 139 134 11 255 157 150 145 145 143 144 146 148 147 146 149 149 148 147 146 143 147 146 144 140 137 133 132 133 132 130 129 128 130 129 122 128 130 136 133 130 136 126 132 129 117 116 132 144 152 156 140 139 150 161 139 129 129 138 120 123 128 122 127 125 137 138 139 138 143 152 163 167 170 183 205 227 174 131 145
216 132 127 208 316 139 119 137 136 133 128 129 131 134 108 89 74 76 48 146 188 214 272 165 148 143 146 149 150 150 150 149 152 154 151 152 144 142 146 140 139 135 129 138 130 133 136 136 134 135 136 134 131 139 137 132 134 136 136 137 143 138 126 114 106 157 168 163 162 171 139 131 124 130 149 94 95 101 137 147 139 144 146 163 155 134 167 178 201 189 187 203 209 192 172 167 174
244 147 207 156 211 115 138 135 143 135 136 136 146 119 107 88 117 89 98 160 230 249 251 181 156 147 148 151 152 152 151 151 154 156 150 149 145 146 142 143 143 135 144 134 132 134 137 137 138 140 134 134 137 136 136 137 144 149 144 153 138 93 116 139 175 178 170 163 172 127 121 137 137 146 142 129 139 167 184 161 130 152 114 124 175 190 175 208 202 221 196 205 203 107 95 121 155
236 221 193 198 183 132 130 140 142 126 133 145 134 136 128 142 112 128 154 183 214 229 237 148 154 150 150 154 156 153 151 153 155 153 154 150 150 148 143 146 138 139 142 140 138 137 143 144 146 141 139 142 140 140 144 143 138 152 115 84 95 176 143 160 175 174 164 175 157 149 138 134 130 129 131 131 152 180 148 132 149 131 131 133 48 334 7 315 255 324 3 45 85 137 143 106 86
217 225 247 171 132 143 119 138 128 133 136 124 138 145 137 161 120 122 218 257 270 224 255 272 159 152 153 156 156 153 151 151 154 155 154 150 155 147 142 142 143 146 145 146 137 147 149 147 150 144 145 147 144 148 150 150 150 114 91 126 190 190 163 162 172 161 156 151 151 147 153 124 129 130 138 156 166 142 147 128 94 120 117 150 185 167 181 241 229 318 343 130 150 182 131 147 166
227 222 206 215 221 88 122 128 134 136 129 124 139 143 127 110 121 163 152 201 217 210 248 189 176 156 158 158 156 156 155 155 156 160 155 159 152 144 145 147 145 154 154 142 142 145 143 147 147 149 150 152 152 149 148 162 159 106 157 178 195 193 171 147 162 142 152 157 154 156 133 114 118 138 132 118 111 105 80 83 119 138 153 176 175 201 161 199 220 130 193 315 188 184 138 136 164
61 202 208 221 209 199 188 138 130 127 123 141 148 141 129 129 142 163 204 200 161 197 228 223 174 161 159 158 156 157 160 158 157 160 155 158 148 152 146 146 154 152 158 141 140 147 144 151 143 142 147 156 150 153 166 162 142 155 169 156 174 169 142 131 135 139 129 110 83 33 83 68 44 117 126 139 140 113 114 125 100 113 148 134 98 106 326 78 298 184 157 177 312 149 77 100 95
227 296 229 189 224 227 252 158 138 126 124 142 143 137 122 158 199 174 153 151 142 129 200 185 169 161 160 155 158 161 161 158 156 160 156 158 154 152 148 152 155 153 155 141 140 146 155 146 142 141 143 156 141 145 145 139 137 130 132 135 146 115 102 162 103 113 133 132 124 120 104 119 163 87 111 126 118 130 122 120 105 47 20 45 138 158 157 186 216 150 220 161 182 122 115 130 161
272 201 257 245 206 211 205 228 119 112 124 143 137 120 139 182 173 167 139 143 173 176 209 158 168 162 160 155 157 166 155 158 160 155 163 150 154 156 154 161 150 156 149 142 144 160 152 147 140 142 142 146 142 142 140 136 133 139 137 128 126 128 120 120 138 146 119 116 121 121 69 77 113 142 128 102 106 92 82 80 97 84 78 238 50 33 13 304 143 96 123 182 235 145 126 91 102
235 246 261 238 212 213 203 218 124 126 143 141 150 147 177 160 130 158 131 98 234 238 165 164 168 165 158 159 159 161 160 156 171 155 162 149 166 154 156 162 147 159 143 141 153 156 152 143 145 143 141 151 144 140 137 138 142 128 122 123 150 116 131 136 124 121 117 113 98 88 85 64 44 30 68 53 68 114 99 63 93 101 38 54 77 156 236 285 27 182 134 199 128 131 151 136 162
220 229 225 243 215 211 199 175 124 122 145 155 187 177 165 154 176 157 141 136 206 198 163 166 172 162 160 157 162 162 163 158 171 158 158 155 166 150 161 153 153 150 137 150 157 152 156 145 149 139 147 144 151 131 147 139 146 140 136 132 117 108 110 97 112 130 123 113 107 109 111 115 103 92 88 78 15 66 109 102 109 87 41 13 19 70 327 29 48 40 351 22 342 255 114 86 86
222 225 215 224 235 213 156 156 139 131 156 176 200 140 158 163 165 173 157 145 188 251 178 165 169 166 162 158 169 164 165 168 168 162 155 165 164 151 163 148 161 142 147 154 152 155 151 150 150 140 145 152 134 139 140 145 141 132 129 125 102 112 113 125 111 116 126 122 116 117 122 126 114 87 89 106 115 78 88 160 52 93 65 341 35 25 294 77 62 51 12 7 1 6 1 41 95
204 232 227 214 210 206 158 173 139 139 156 191 213 133 138 163 161 168 153 141 181 161 254 165 174 168 166 163 173 164 165 174 165 164 155 169 159 156 157 153 155 146 148 153 150 150 152 149 145 146 148 147 138 148 136 149 133 127 130 129 131 127 118 121 114 112 107 93 110 114 118 116 106 94 81 84 106 149 147 167 158 130 158 185 220 149 278 117 179 110 24 5 10 6 345 359 106
211 202 243 235 222 156 188 150 133 133 152 175 200 142 159 146 161 160 167 167 158 150 220 289 183 173 172 168 176 164 168 174 163 166 158 168 158 159 156 158 146 151 142 151 154 151 156 151 154 149 142 141 141 132 132 146 134 124 145 129 105 110 117 123 117 119 104 118 115 116 104 98 103 99 99 85 16 59 90 74 39 121 135 86 64 27 308 119 142 84 107 270 342 55 321 293 174
199 192 216 242 242 194 174 193 139 163 167 175 155 138 118 134 152 167 172 171 167 147 282 255 272 201 178 174 177 169 170 175 162 168 162 164 161 160 152 163 145 153 150 151 154 148 143 159 145 132 146 140 143 137 141 143 133 152 143 116 101 107 116 114 130 128 129 125 121 109 103 101 106 115 107 74 53 55 69 56 52 65 120 76 52 330 239 351 28 80 283 132 295 337 285 296 340
224 191 210 239 229 211 210 168 139 155 164 168 155 130 143 142 158 169 171 167 158 160 164 279 291 346 322 196 177 170 175 172 165 171 162 165 162 162 150 169 148 152 152 145 145 150 139 170 129 140 142 141 144 144 153 149 152 165 141 133 121 138 134 134 139 132 142 138 132 133 122 109 93 92 121 115 103 61 93 151 137 187 163 168 157 245 247 186 92 18 347 353 108 317 319 294 245
231 211 209 227 249 241 173 145 165 168 163 174 160 139 146 158 158 169 178 162 155 167 170 197 240 249 208 275 183 176 172 173 166 175 161 168 163 162 151 166 152 151 146 146 153 159 154 167 138 151 148 145 151 154 166 161 162 165 154 156 143 147 138 142 143 138 150 144 144 142 138 121 107 94 92 136 140 105 50 301 221 165 197 173 123 232 294 182 144 141 205 239 340 101 287 284 296
277 251 203 213 234 250 146 158 152 166 176 156 191 138 144 162 169 169 166 167 179 182 171 181 199 217 218 259 212 178 172 168 172 172 166 169 165 161 157 167 157 157 151 155 157 162 158 161 151 155 154 148 161 161 167 168 159 168 164 167 142 146 149 159 140 147 150 150 138 141 142 128 136 121 158 161 168 156 169 202 206 233 138 114 144 236 227 222 159 167 196 145 242 284 222 208 88
274 265 258 218 213 233 153 152 178 163 189 159 158 143 161 156 170 177 169 182 185 180 182 178 161 184 225 266 267 179 175 172 175 172 170 167 166 161 161 167 161 161 155 161 158 160 160 157 152 157 157 155 165 162 178 163 166 154 181 163 153 147 158 156 145 159 162 161 142 143 132 123 131 162 181 172 181 170 167 197 201 166 138 151 164 214 224 204 185 127 351 59 333 254 280 78 39
262 235 243 229 217 191 136 176 179 174 178 160 145 148 162 153 164 180 181 182 182 177 178 149 119 187 195 223 247 190 182 174 175 173 173 170 166 164 164 168 162 160 160 163 164 162 164 152 156 164 155 159 167 160 180 164 167 157 179 162 167 134 155 148 140 149 158 150 150 154 150 152 164 179 194 181 143 139 206 179 184 126 157 200 150 230 202 171 194 173 175 188 158 232 194 157 186
235 259 239 246 213 187 200 171 171 166 171 187 149 158 165 152 171 178 184 181 176 167 144 142 130 158 185 235 289 280 208 173 176 174 176 173 170 166 168 167 168 163 167 167 168 168 168 161 160 172 160 157 175 155 177 160 158 146 165 163 109 133 137 130 124 159 161 159 161 164 174 170 176 167 179 171 142 166 200 126 167 175 170 156 169 233 225 194 175 190 111 188 164 202 324 95 169
227 238 252 271 235 226 158 107 182 199 200 198 160 185 174 183 176 178 171 177 176 150 164 174 156 190 198 216 252 208 222 182 179 178 177 174 173 163 165 172 171 167 171 169 173 171 167 160 161 167 160 157 177 155 178 154 162 149 152 181 140 181 154 137 182 164 161 165 165 180 158 174 160 110 191 185 160 177 176 170 200 183 183 142 219 269 218 301 180 196 151 190 179 222 232 192 104
224 214 242 254 283 262 220 144 194 198 226 167 201 215 156 181 163 179 178 185 170 151 166 172 164 190 196 197 210 254 178 189 182 180 181 177 173 170 170 175 175 170 175 168 176 172 165 160 159 169 164 168 173 153 174 154 163 153 169 176 159 169 168 158 142 152 148 151 157 170 164 166 148 167 195 188 157 175 178 166 196 190 203 160 181 175 220 232 177 229 138 109 251 240 5 52 130
233 213 205 241 258 254 258 196 198 266 260 183 195 216 163 167 173 166 182 179 159 162 162 166 173 174 192 192 188 220 188 181 183 189 184 182 173 176 175 177 179 172 175 169 178 172 161 156 160 169 165 171 174 152 176 163 162 162 172 179 169 170 182 158 163 137 155 156 158 161 169 169 153 180 174 171 164 172 177 193 175 174 218 171 172 201 215 213 142 175 88 114 166 346 55 12 349
238 226 319 245 241 269 295 240 210 222 230 237 187 198 236 126 158 174 166 173 161 172 163 180 152 191 202 197 196 208 192 179 191 194 194 189 176 179 175 180 183 173 176 172 179 168 155 156 159 168 167 171 170 156 173 172 159 170 179 176 174 184 179 170 155 153 131 150 142 153 161 163 133 130 158 168 171 168 187 173 172 161 156 193 197 212 212 159 157 132 130 195 123 143 237 61 17
236 268 290 224 230 243 271 253 223 187 229 240 196 170 219 102 144 145 125 111 163 162 170 189 166 165 184 214 200 204 185 181 190 192 185 195 187 182 178 182 186 178 176 171 180 168 163 160 161 173 167 173 168 160 173 174 166 172 181 182 177 183 187 161 164 147 163 138 161 147 145 154 144 163 157 188 173 171 171 167 172 172 167 195 347 268 176 170 143 149 159 170 173 173 181 147 191
234 237 297 254 185 195 247 264 186 235 234 253 224 179 199 134 192 178 163 157 185 182 149 223 186 187 170 187 187 183 181 182 184 175 176 198 187 182 189 187 188 182 176 174 180 170 168 168 165 176 166 175 166 163 173 175 173 181 175 188 183 179 193 160 171 143 156 141 153 146 146 142 155 155 162 199 177 177 165 181 178 166 165 146 166 261 234 171 156 169 178 172 160 160 188 193 240
232 201 227 164 261 234 225 208 269 239 224 227 227 208 187 189 165 151 147 159 145 164 184 203 181 183 179 180 185 175 178 182 181 179 186 181 140 76 176 203 195 184 181 175 183 169 167 167 170 174 170 176 167 167 178 174 184 175 180 188 185 181 188 173 180 157 166 153 163 158 151 149 158 157 166 183 184 176 158 192 146 143 141 178 167 214 244 109 151 165 161 126 180 133 230 128 206
216 208 193 216 179 208 217 216 212 234 247 210 240 244 224 266 128 139 150 138 152 139 180 171 174 176 183 179 181 179 179 178 176 177 188 184 164 156 150 215 250 223 181 178 184 174 170 168 171 175 173 176 169 170 177 178 181 177 182 186 186 182 186 181 171 176 165 167 167 164 162 162 161 160 174 180 189 176 162 166 166 176 155 209 153 109 14 75 321 243 127 178 178 170 188 196 141
207 210 192 211 195 187 221 206 224 219 237 256 231 215 132 92 92 132 140 122 110 110 128 151 163 183 167 174 178 172 180 182 183 178 194 169 161 155 128 138 208 273 210 180 189 175 169 173 171 179 173 176 172 170 177 180 182 178 184 183 184 180 184 187 176 182 175 165 174 168 178 173 164 176 178 185 177 168 184 168 162 171 166 163 126 130 130 234 184 338 139 194 181 169 190 170 204
203 216 204 207 219 195 210 219 212 224 227 227 247 219 149 141 114 103 89 100 87 109 126 119 140 143 163 165 167 165 173 181 185 190 185 139 118 128 148 177 208 222 277 207 201 171 165 166 171 176 173 178 175 173 176 181 181 181 183 184 181 179 186 187 186 191 170 171 188 181 184 175 178 180 175 172 171 165 200 157 179 165 172 162 171 162 184 188 176 132 316 194 196 169 204 175 187
190 216 228 216 222 211 233 192 218 208 214 208 219 213 96 102 130 124 128 111 121 101 95 129 132 121 87 138 158 157 175 174 177 186 148 132 166 162 169 180 195 211 202 212 257 234 171 165 170 178 175 180 176 176 177 182 180 182 183 185 180 183 180 187 189 185 177 184 185 186 167 182 202 177 162 169 177 182 193 161 174 175 164 170 168 183 181 165 171 164 136 254 171 198 189 187 219
174 208 215 219 240 242 240 235 227 226 218 218 140 94 92 116 134 140 123 115 101 89 85 63 90 85 82 51 105 158 177 170 181 177 157 157 169 170 174 181 194 196 183 113 64 345 320 176 171 175 175 180 178 179 180 183 179 184 183 185 185 183 185 190 191 190 196 192 184 187 167 184 196 217 173 174 174 177 169 165 178 175 166 169 176 173 178 153 187 158 166 243 206 226 156 204 201
212 215 215 220 236 254 254 252 210 221 222 205 164 134 144 158 141 133 124 120 106 94 79 66 104 102 85 73 63 91 131 158 181 171 161 131 159 174 174 179 184 161 85 88 78 39 308 300 180 177 179 182 180 180 184 182 181 188 182 188 190 187 188 193 190 189 199 183 181 196 186 175 178 206 186 182 172 167 170 173 181 180 167 184 179 180 184 175 168 194 188 200 204 208 192 179 212
255 236 33 240 200 222 240 271 250 223 218 223 158 143 152 167 140 149 144 125 116 99 88 78 98 100 90 89 87 90 120 139 183 173 162 153 167 158 151 153 172 137 105 100 111 72 3 333 310 202 185 193 181 185 184 182 185 191 190 191 194 192 188 194 194 180 198 184 191 186 206 177 183 191 209 158 166 172 170 176 183 187 170 173 180 184 181 168 186 194 177 200 212 165 185 205 203
240 261 267 256 287 235 223 214 256 247 235 225 158 158 147 136 141 131 128 109 114 110 97 97 67 71 72 94 81 85 67 48 30 150 153 151 144 130 113 94 74 83 102 107 118 156 204 200 206 309 288 214 195 191 186 186 188 194 190 190 197 196 193 198 200 178 193 187 193 178 204 183 187 180 186 181 175 177 180 181 191 195 185 185 185 196 183 187 187 201 202 195 204 187 196 206 202
209 221 245 231 236 276 259 210 221 221 267 240 192 135 65 93 112 104 104 100 106 97 95 69 51 43 49 68 76 64 53 66 64 49 52 105 98 116 103 113 139 104 114 126 161 180 197 192 195 182 208 220 205 227 207 194 194 200 185 187 195 196 201 198 202 194 191 192 189 187 191 199 175 188 183 182 186 186 188 186 190 197 194 184 186 193 181 180 187 194 218 191 205 182 202 202 225
214 215 223 214 200 216 220 244 214 220 234 250 342 104 117 97 126 123 110 117 94 96 94 90 83 64 53 59 43 40 71 78 74 64 60 77 124 111 123 126 115 108 124 147 140 151 192 200 205 215 211 195 175 142 279 267 221 201 207 190 195 195 201 198 201 200 200 193 192 194 181 200 185 186 185 187 184 199 186 188 209 187 205 180 175 192 196 187 183 196 209 212 205 192 196 221 204